CW5306 Weather Reports


time (UTC)temp
C
wind
direction
speed
KPH
gust
KPH
rain 1hr
cm
rain 24hr
cm
rain mn
cm
humidity
%
barometer
mb
20260509013010 25 76 4.8 20.9 0.00 1.27 2.41 73 1017.1
20260509012509 26 57 0.0 17.7 0.00 1.27 2.41 72 1016.7
20260509012009 26 94 12.9 17.7 0.00 1.27 2.41 72 1016.7
20260509011509 26 60 11.3 17.7 0.00 1.27 2.41 72 1017.1
20260509011009 25 49 9.7 16.1 0.00 1.27 2.41 74 1017.0
20260509010747 26 67 6.4 20.9 0.00 1.27 2.41 74 1016.9
20260509010510 26 67 12.9 16.1 0.00 1.27 2.41 73 1017.1
20260509005510 26 49 9.7 20.9 0.00 1.27 2.41 72 1016.8
20260509005009 26 77 9.7 20.9 0.00 1.27 2.41 73 1016.9
20260509004741 26 81 4.8 20.9 0.00 1.27 2.41 72 1016.9
20260509004009 26 63 12.9 16.1 0.00 1.27 2.41 72 1017.0
20260509003510 26 106 4.8 17.7 0.00 1.27 2.41 72 1017.1
20260509003010 26 96 11.3 17.7 0.00 1.27 2.41 73 1017.1
20260509002510 26 62 6.4 16.1 0.00 1.27 2.41 75 1017.3
20260509002240 26 98 8.0 20.9 0.00 1.27 2.41 74 1017.3
20260509001740 25 46 0.0 20.9 0.00 1.27 2.41 75 1017.3
20260509001009 25 71 1.6 17.7 0.00 1.27 2.41 74 1017.3
20260509000509 26 89 11.3 17.7 0.00 1.27 2.41 73 1017.4
20260509000009 26 89 1.6 16.1 0.00 1.27 2.41 72 1017.4
20260508235509 26 114 8.0 20.9 0.00 1.27 2.41 73 1017.4
20260508235008 26 71 8.0 20.9 0.00 1.27 2.41 73 1017.4
20260508234740 26 79 12.9 20.9 0.00 1.27 2.41 74 1017.3
20260508234009 26 60 4.8 17.7 0.00 1.27 2.41 74 1017.4
20260508233739 26 98 8.0 17.7 0.00 1.27 2.41 74 1017.6
20260508233239 26 41 8.0 16.1 0.00 1.27 2.41 75 1017.6
20260508232509 26 86 9.7 20.9 0.00 1.27 2.41 74 1017.7
20260508232008 26 73 14.5 20.9 0.00 1.27 2.41 72 1017.7
20260508231740 26 66 3.2 17.7 0.00 1.27 2.41 73 1017.8
20260508231239 26 58 6.4 17.7 0.00 1.27 2.41 75 1017.9
20260508230509 26 87 0.0 20.9 0.00 1.27 2.41 73 1018.0
20260508230008 26 36 6.4 20.9 0.00 1.27 2.41 75 1017.8
20260508225509 26 75 8.0 22.5 0.00 1.27 2.41 76 1017.7
20260508225009 26 81 11.3 22.5 0.00 1.27 2.41 75 1017.8
20260508224508 26 85 0.0 20.9 0.00 1.27 2.41 75 1018.0
20260508224008 26 50 4.8 17.7 0.00 1.27 2.41 75 1018.1
20260508223509 26 88 1.6 20.9 0.00 1.27 2.41 76 1018.2
20260508223009 26 74 11.3 20.9 0.00 1.27 2.41 76 1018.1
20260508222509 25 52 1.6 22.5 0.00 1.27 2.41 76 1018.3
20260508222240 25 89 12.9 22.5 0.00 1.27 2.41 75 1018.3
20260508221508 26 65 12.9 20.9 0.00 1.27 2.41 75 1018.1
20260508221011 26 65 0.0 16.1 0.00 1.27 2.41 77 1018.3
20260508220739 26 121 4.8 17.7 0.00 1.27 2.41 76 1018.3
20260508220008 26 82 9.7 20.9 0.00 1.27 2.41 76 1018.3
20260508215740 25 63 6.4 22.5 0.00 1.27 2.41 76 1018.4
20260508215009 25 83 11.3 22.5 0.00 1.27 2.41 76 1018.4
20260508214509 25 92 14.5 20.9 0.00 1.27 2.41 77 1018.4
20260508214009 25 82 12.9 17.7 0.00 1.27 2.41 77 1018.4
20260508213509 25 117 0.0 12.9 0.00 1.27 2.41 80 1018.4
20260508213009 25 37 0.0 14.5 0.00 1.27 2.41 79 1018.6
20260508212508 25 87 0.0 14.5 0.00 1.27 2.41 78 1018.7
20260508212008 25 47 0.0 14.5 0.00 1.27 2.41 79 1019.0
20260508211509 25 70 0.0 14.5 0.00 1.27 2.41 78 1018.9
20260508211241 25 75 0.0 12.9 0.00 1.27 2.41 77 1018.7
20260508210509 25 66 0.0 12.9 0.00 1.27 2.41 78 1019.1
20260508210009 25 64 0.0 9.7 0.00 1.27 2.41 79 1019.2
20260508205509 25 67 0.0 9.7 0.00 1.27 2.41 77 1019.2
20260508205008 25 23 0.0 8.0 0.00 1.27 2.41 79 1019.1
20260508204508 25 118 0.0 8.0 0.00 1.27 2.41 79 1019.5
20260508204008 25 60 0.0 6.4 0.00 1.27 2.41 78 1019.3
20260508203508 25 198 0.0 0.0 0.00 1.27 2.41 80 1019.3
20260508203008 25 198 0.0 0.0 0.00 1.27 2.41 82 1019.4
20260508202509 24 208 0.0 3.2 0.00 1.27 2.41 83 1019.4
20260508202009 24 208 0.0 3.2 0.00 1.27 2.41 84 1019.4
20260508201509 23 208 0.0 0.0 0.00 1.27 2.41 85 1019.5
20260508201009 23 223 0.0 0.0 0.00 1.27 2.41 85 1019.6
20260508200508 23 223 0.0 0.0 0.00 1.27 2.41 88 1019.7
20260508200009 23 223 0.0 0.0 0.00 1.27 2.41 88 1019.3
20260508195508 23 223 0.0 0.0 0.00 1.27 2.41 89 1019.6
20260508195009 23 223 0.0 0.0 0.00 1.27 2.41 89 1019.4
20260508194727 23 223 0.0 0.0 0.00 1.27 2.41 89 1019.6
20260508193956 22 223 0.0 1.6 0.00 1.27 2.41 89 1019.6
20260508193447 22 223 0.0 1.6 0.00 1.27 2.41 89 1019.6
20260508192945 22 223 0.0 0.0 0.00 1.27 2.41 90 1019.7
20260508192445 22 233 0.0 0.0 0.00 1.27 2.41 92 1019.4
20260508191947 22 233 0.0 0.0 0.00 1.27 2.41 92 1019.3
20260508191446 22 233 0.0 3.2 0.00 1.27 2.41 93 1019.3
20260508190944 22 233 0.0 3.2 0.00 1.27 2.41 92 1019.3
20260508190445 22 233 0.0 0.0 0.00 1.27 2.41 93 1019.3
20260508185945 21 233 0.0 0.0 0.00 1.27 2.41 93 1019.1
20260508185446 21 233 0.0 0.0 0.00 1.27 2.41 93 1019.4
20260508184944 21 233 0.0 0.0 0.00 1.27 2.41 93 1019.4
20260508184444 21 233 0.0 0.0 0.00 1.27 2.41 93 1019.3
20260508183944 21 233 0.0 0.0 0.00 1.27 2.41 93 1019.2
20260508183433 21 233 0.0 0.0 0.00 1.27 2.41 93 1019.0
20260508182933 21 233 0.0 0.0 0.03 1.27 2.41 93 1019.2
20260508182433 20 232 0.0 0.0 0.03 1.27 2.41 93 1019.2
20260508181932 20 232 0.0 0.0 0.05 1.24 2.41 93 1019.6
20260508181433 20 232 0.0 0.0 0.05 1.24 2.41 93 1019.2
20260508180932 20 238 0.0 1.6 0.05 1.24 2.41 93 1019.4
20260508180432 20 243 0.0 6.4 0.05 1.24 2.41 93 1019.3
20260508175921 20 220 0.0 6.4 0.05 1.24 2.41 93 1019.5
20260508175653 20 224 0.0 0.0 0.05 1.24 2.41 93 1019.5
20260508174920 20 225 0.0 0.0 0.05 1.24 2.41 93 1019.3
20260508174653 20 225 0.0 0.0 0.05 1.24 2.41 93 1019.3
20260508173920 20 225 0.0 0.0 0.05 1.24 2.41 93 1019.3
20260508173426 20 235 0.0 0.0 0.10 1.24 2.39 93 1019.4
20260508173420 20 225 0.0 0.0 0.08 1.24 2.41 93 1019.4
20260508172421 19 232 0.0 0.0 0.08 1.22 2.39 93 1019.4
20260508171921 19 239 0.0 0.0 0.05 1.19 2.36 93 1019.4
20260508171420 19 226 0.0 0.0 0.08 1.19 2.36 92 1019.2
20260508170927 19 249 0.0 0.0 0.15 1.19 2.36 92 1018.8
20260508170921 19 226 0.0 0.0 0.10 1.19 2.36 92 1018.9
20260508165909 19 251 0.0 0.0 0.30 1.19 2.36 92 1018.9
20260508165403 19 245 0.0 0.0 0.33 1.19 2.36 92 1018.8
20260508164857 19 250 0.0 0.0 0.41 1.19 2.36 92 1018.9
20260508164357 19 239 0.0 0.0 0.56 1.19 2.36 92 1018.7
20260508163857 19 239 0.0 0.0 0.64 1.19 2.36 92 1018.8
20260508163358 19 239 0.0 0.0 0.79 1.17 2.34 92 1018.7
20260508162851 19 239 0.0 0.0 0.89 1.14 2.31 92 1018.9
20260508162351 19 235 0.0 0.0 1.14 1.14 2.31 92 1018.7
20260508161851 19 236 0.0 0.0 1.12 1.12 2.29 92 1018.6
20260508161346 19 239 0.0 9.7 1.12 1.12 2.29 92 1018.3
20260508160845 19 289 0.0 9.7 1.12 1.12 2.26 92 1018.2
20260508160344 19 224 6.4 8.0 1.04 1.04 2.21 92 1018.1
20260508160340 19 279 0.0 8.0 0.89 0.89 2.06 92 1018.1
20260508155330 19 282 3.2 12.9 0.86 0.86 2.03 92 1018.0
20260508154821 19 210 0.0 14.5 0.79 0.79 1.96 92 1017.9
20260508154311 19 225 3.2 14.5 0.64 0.64 1.78 92 1018.0
20260508153809 19 212 3.2 9.7 0.56 0.56 1.73 92 1017.7
20260508153307 19 237 0.0 12.9 0.36 0.36 1.55 92 1017.9
20260508152803 19 242 4.8 12.9 0.18 0.18 1.37 92 1017.8
20260508152242 19 0.0 0.0 0.00 0.00 0.36 92
20260508144516 20 252 6.4 8.0 0.23 0.36 0.36 91 1017.3
20260508143946 20 202 0.0 9.7 0.25 0.36 0.36 91 1017.6
20260508143433 20 224 0.0 9.7 0.25 0.36 0.36 91 1017.4
20260508142934 20 212 0.0 14.5 0.25 0.36 0.36 91 1017.4
20260508142434 20 235 0.0 14.5 0.25 0.36 0.36 90 1017.4
20260508141923 20 201 0.0 9.7 0.23 0.33 0.36 91 1017.3
20260508141422 20 243 0.0 14.5 0.20 0.30 0.33 89 1017.3
20260508140922 20 265 1.6 14.5 0.20 0.30 0.30 89 1017.5
20260508140422 20 321 0.0 0.0 0.15 0.25 0.25 88 1017.5
20260508135922 20 205 0.0 17.7 0.10 0.20 0.23 88 1017.8
20260508135422 20 305 0.0 17.7 0.05 0.15 0.18 88 1017.6
20260508134921 20 222 1.6 14.5 0.05 0.15 0.15 88 1017.8
20260508134409 20 135 0.0 14.5 0.05 0.10 0.10 88 1017.7
20260508134140 21 200 0.0 8.0 0.05 0.10 0.10 88 1017.7
20260508133410 21 294 0.0 8.0 0.05 0.10 0.10 88 1017.5
20260508133141 21 216 0.0 14.5 0.05 0.10 0.10 88 1017.6
20260508132409 21 225 0.0 14.5 0.05 0.10 0.10 88 1017.7
20260508131910 22 223 0.0 8.0 0.05 0.10 0.10 88 1017.7
20260508131410 22 233 0.0 8.0 0.05 0.10 0.10 88 1017.8
20260508130857 22 191 0.0 9.7 0.05 0.10 0.10 88 1017.7
20260508130358 22 115 0.0 16.1 0.05 0.10 0.10 88 1017.8
20260508125859 22 80 0.0 16.1 0.08 0.10 0.10 89 1017.6
20260508125628 22 70 0.0 14.5 0.10 0.10 0.10 89 1017.4
20260508124858 22 56 0.0 17.7 0.08 0.08 0.08 88 1017.3
20260508124358 22 75 8.0 17.7 0.05 0.05 0.05 88 1017.5
20260508124128 22 91 1.6 17.7 0.05 0.05 0.05 88 1017.9
20260508123358 22 86 6.4 22.5 0.05 0.05 0.05 88 1017.7
20260508122839 22 63 4.8 20.9 0.05 0.05 0.05 88 1018.0
20260508122334 22 59 4.8 22.5 0.05 0.05 0.05 88 1017.9
20260508121821 22 62 9.7 16.1 0.05 0.05 0.05 89 1017.8
20260508121322 22 24 8.0 20.9 0.05 0.05 0.05 88 1018.2
20260508120821 22 40 4.8 22.5 0.05 0.05 0.05 88 1018.0
20260508120321 22 68 12.9 25.7 0.05 0.05 0.05 88 1018.1
20260508115821 23 71 12.9 25.7 0.00 0.00 0.03 86 1018.4
20260508115320 23 57 0.0 22.5 0.00 0.00 0.00 86 1018.4
20260508114820 23 76 6.4 20.9 0.00 0.00 0.00 85 1018.5
20260508114322 23 37 11.3 17.7 0.00 0.00 0.00 85 1018.4
20260508114308 23 76 8.0 20.9 0.00 0.00 0.00 85 1018.5
20260508114059 23 76 8.0 20.9 0.00 0.00 0.00 85 1018.5
20260508114054 23 44 14.5 17.7 0.00 0.00 0.00 85 1018.5
20260508113827 23 44 14.5 17.7 0.00 0.00 0.00 85 1018.5
20260508113539 23 76 8.0 20.9 0.00 0.00 0.00 85 1018.5
20260508112804 23 41 0.0 20.9 0.00 0.00 0.00 84 1018.6
20260508112307 23 83 9.7 25.7 0.00 0.00 0.00 83 1018.5
20260508111752 23 95 14.5 25.7 0.00 0.00 0.00 83 1018.6
20260508111252 23 73 14.5 22.5 0.00 0.00 0.00 84 1018.5
20260508111022 23 85 12.9 24.1 0.00 0.00 0.00 84 1018.4
20260508110533 23 74 11.3 25.7 0.00 0.00 0.00 83 1018.5
20260508110236 23 74 12.9 17.7 0.00 0.00 0.00 83 1018.6
20260508110029 23 64 12.9 25.7 0.00 0.00 0.00 83 1018.8
20260508105806 23 64 12.9 25.7 0.00 0.00 0.00 83 1018.8
20260508105522 23 74 12.9 17.7 0.00 0.00 0.00 83 1018.6
20260508104237 23 88 6.4 17.7 0.00 0.00 0.00 81 1018.6
20260508103453 23 71 11.3 17.7 0.00 0.00 0.00 81 1018.7
20260508103448 23 77 6.4 9.7 0.00 0.00 0.00 82 1018.7
20260508103243 23 77 6.4 9.7 0.00 0.00 0.00 82 1018.7
20260508101714 23 2 6.4 24.1 0.00 0.00 0.00 81 1018.8
20260508101011 23 93 0.0 17.7 0.00 0.00 0.00 81 1018.8
20260508100942 23 70 12.9 22.5 0.00 0.00 0.00 81 1018.8
20260508100443 23 93 0.0 17.7 0.00 0.00 0.00 81 1018.8
20260508100201 23 65 4.8 20.9 0.00 0.00 0.10 82 1018.9
20260508095935 23 65 4.8 20.9 0.00 0.00 0.10 82 1018.9
20260508095723 23 88 6.4 22.5 0.00 0.00 0.10 81 1019.1
20260508095457 23 88 6.4 22.5 0.00 0.00 0.10 81 1019.1
20260508094913 23 115 6.4 22.5 0.00 0.00 0.10 81 1019.0
20260508094407 23 0.0 0.0 0.00 0.00 0.10 80
20260508094129 23 48 8.0 22.5 0.00 0.00 0.10 81 1019.1
20260508093910 23 48 8.0 22.5 0.00 0.00 0.10 81 1019.1
20260508093300 23 76 4.8 20.9 0.00 0.00 0.10 80 1019.4
20260508091948 23 70 16.1 20.9 0.00 0.00 0.10 80 1019.5
20260508091707 23 84 1.6 6.4 0.00 0.00 0.10 80 1019.6
20260508091436 23 84 1.6 6.4 0.00 0.00 0.10 80 1019.6
20260508085934 -17 0.0 0.0 0.00 0.10 0.10
20260508085844 23 62 9.7 14.5 0.00 0.10 0.10 80 1019.6
20260508084222 23 79 0.0 20.9 0.00 0.10 0.10 81 1019.3
20260508084210 23 36 0.0 16.1 0.00 0.10 0.10 82 1019.6
20260508083737 23 75 9.7 20.9 0.00 0.10 0.10 81 1019.3
20260508082946 23 59 12.9 14.5 0.00 0.10 0.10 81 1019.3
20260508082719 23 59 12.9 14.5 0.00 0.10 0.10 81 1019.3
20260508081856 23 74 8.0 20.9 0.00 0.10 0.10 81 1019.3
20260508080825 23 64 17.7 24.1 0.00 0.10 0.10 80 1019.5
20260508080810 23 75 9.7 24.1 0.00 0.10 0.10 80 1019.3
20260508080559 23 64 17.7 24.1 0.00 0.10 0.10 80 1019.5
20260508080318 23 64 17.7 24.1 0.00 0.10 0.10 80 1019.5
20260508075807 23 114 1.6 17.7 0.00 0.10 0.10 80 1019.5
20260508075314 23 98 8.0 22.5 0.00 0.10 0.10 80 1019.4
20260508075309 23 90 12.9 17.7 0.00 0.10 0.10 81 1019.6
20260508074307 23 119 0.0 22.5 0.00 0.10 0.10 80 1019.4
20260508073809 23 99 8.0 17.7 0.00 0.10 0.10 80 1019.6
20260508073307 23 85 0.0 20.9 0.00 0.10 0.10 80 1019.5
20260508072807 23 94 0.0 20.9 0.00 0.10 0.10 80 1019.3
20260508072308 23 79 0.0 20.9 0.00 0.10 0.10 80 1019.3
20260508071810 23 76 12.9 20.9 0.00 0.10 0.10 80 1019.2
20260508071308 23 80 8.0 20.9 0.00 0.10 0.10 79 1019.2
20260508070807 23 104 9.7 20.9 0.00 0.10 0.10 79 1019.2
20260508070307 23 78 6.4 22.5 0.00 0.10 0.10 80 1019.0
20260508065808 23 73 8.0 22.5 0.00 0.10 0.10 80 1019.3
20260508065308 23 97 0.0 16.1 0.00 0.10 0.10 80 1018.9
20260508064808 23 73 1.6 20.9 0.00 0.10 0.10 80 1018.9
20260508064308 23 119 6.4 20.9 0.00 0.10 0.10 80 1018.8
20260508063808 23 82 6.4 20.9 0.00 0.10 0.10 80 1019.0
20260508063308 23 73 6.4 20.9 0.00 0.10 0.10 80 1018.8
20260508062807 23 78 3.2 17.7 0.00 0.10 0.10 80 1018.9
20260508062307 23 69 6.4 17.7 0.00 0.10 0.10 80 1019.0
20260508061807 23 55 6.4 14.5 0.00 0.10 0.10 80 1018.7
20260508061538 23 77 11.3 14.5 0.00 0.10 0.10 79 1018.8
20260508061039 23 96 9.7 24.1 0.00 0.10 0.10 79 1018.7
20260508060308 23 48 0.0 24.1 0.00 0.10 0.10 79 1018.7
20260508055807 23 98 1.6 16.1 0.00 0.10 0.10 79 1018.6
20260508055307 23 63 11.3 14.5 0.00 0.10 0.10 79 1018.5
20260508055029 23 90 4.8 16.1 0.00 0.10 0.10 79 1018.5
20260508054903 23 90 0.0 16.1 0.00 0.10 0.10 79 1018.4
20260508053756 23 61 8.0 12.9 0.00 0.10 0.10 79 1018.5
20260508053256 23 86 4.8 16.1 0.00 0.10 0.10 79 1018.5
20260508052756 23 97 9.7 16.1 0.00 0.10 0.10 79 1018.4
20260508052526 23 93 8.0 17.7 0.00 0.10 0.10 79 1018.1
20260508051756 23 110 0.0 17.7 0.00 0.10 0.10 79 1018.4
20260508051256 23 43 0.0 14.5 0.00 0.10 0.10 78 1018.2
20260508050755 23 67 8.0 16.1 0.00 0.10 0.10 78 1018.1
20260508050244 23 100 8.0 16.1 0.00 0.10 0.10 78 1018.2
20260508045744 24 52 3.2 12.9 0.00 0.10 0.10 78 1018.1
20260508045515 24 103 0.0 17.7 0.00 0.10 0.10 77 1018.3
20260508044743 24 77 1.6 17.7 0.00 0.10 0.10 78 1017.9
20260508044246 24 85 1.6 17.7 0.00 0.10 0.10 77 1017.9
20260508044014 24 108 4.8 17.7 0.00 0.10 0.10 77 1017.8
20260508043232 24 18 0.0 16.1 0.00 0.10 0.10 77 1017.9
20260508042731 24 89 0.0 12.9 0.00 0.10 0.10 76 1018.0
20260508042232 24 90 0.0 14.5 0.00 0.10 0.10 76 1018.0
20260508041731 24 71 0.0 17.7 0.00 0.10 0.10 75 1017.7
20260508041231 24 101 1.6 17.7 0.00 0.10 0.10 76 1017.7
20260508041003 24 72 6.4 14.5 0.00 0.10 0.10 74 1017.5
20260508040231 24 102 4.8 14.5 0.00 0.10 0.10 74 1017.6
20260508035731 25 66 0.0 14.5 0.00 0.10 0.10 74 1017.6
20260508035219 24 121 4.8 14.5 0.00 0.10 0.10 73 1017.6
20260508034719 24 94 0.0 12.9 0.00 0.10 0.10 72 1017.7
20260508034452 24 90 0.0 14.5 0.00 0.10 0.10 72 1017.6
20260508033950 24 99 0.0 16.1 0.00 0.10 0.10 72 1017.6
20260508033219 25 66 0.0 16.1 0.00 0.10 0.10 71 1017.6
20260508032720 25 94 0.0 16.1 0.00 0.10 0.10 72 1017.6
20260508032219 25 64 11.3 17.7 0.00 0.10 0.10 73 1017.3
20260508031720 25 89 6.4 17.7 0.00 0.10 0.10 71 1017.5
20260508031220 25 105 1.6 14.5 0.00 0.10 0.10 70 1017.4
20260508030719 25 97 0.0 14.5 0.00 0.10 0.10 71 1017.5
20260508030219 25 90 9.7 16.1 0.00 0.10 0.10 71 1017.3
20260508025952 25 91 0.0 16.1 0.00 0.10 0.10 72 1017.3
20260508025220 25 94 1.6 16.1 0.00 0.10 0.10 73 1017.3
20260508024720 25 108 0.0 16.1 0.00 0.10 0.10 72 1017.3
20260508024220 25 81 3.2 16.1 0.00 0.10 0.10 70 1017.3
20260508023719 25 55 6.4 14.5 0.00 0.10 0.10 71 1017.3
20260508023451 25 136 0.0 17.7 0.00 0.10 0.10 72 1017.4
20260508022719 25 14 0.0 17.7 0.00 0.10 0.10 72 1017.2
20260508022219 25 67 9.7 17.7 0.00 0.10 0.10 72 1017.5
20260508021950 25 84 3.2 16.1 0.00 0.10 0.10 71 1017.5
20260508021219 25 24 0.0 16.1 0.00 0.10 0.10 73 1017.2
20260508020951 25 68 6.4 17.7 0.00 0.10 0.10 71 1017.5
20260508020220 25 85 12.9 17.7 0.00 0.10 0.10 70 1017.3
20260508015719 25 87 0.0 17.7 0.00 0.10 0.10 72 1017.5
20260508015220 26 75 9.7 17.7 0.00 0.10 0.10 70 1017.5
20260508014951 26 97 0.0 17.7 0.00 0.10 0.10 70 1017.5
20260508014220 26 89 0.0 17.7 0.00 0.10 0.10 70 1017.3
20260508013720 26 104 6.4 16.1 0.00 0.10 0.10 70 1017.3
20260508013221 26 68 9.7 16.1 0.00 0.10 0.10 70 1017.6